Location: L�Ave Maria
(50.7161°N, 1.5911°E)
Time: 13:25:49
(UTC+00:00)

Cosmos 2366 rocket - Pass Details

Date: 10 July 2020
Orbit: 954 x 998 km, 82.9° (Epoch: 06 August)

Event Time Altitude Azimuth Distance (km) Brightness Sun altitude
Exits shadow 23:18:34 22° 194° (SSW) 2,018 5.1 -16.7°
Maximum altitude 23:22:53 81° 280° (W) 1,015 4.1 -16.8°
Drops below altitude 10° 23:29:15 10° 8° (N) 2,764 7.6 -16.9°
Sets 23:31:47 0° 10° (N) 3,711 8.5 -17.0°
